Durango, CO

12:00 PM MDT on October 19, 2019 (GMT -0600)
Durango-La Plata County

Weather History for KDRO - September, 2019

Change the Weather History Date:

Sunday, September 22, 2019

  Actual Average Record
Temperature  
Mean Temperature 52 °F 56 °F  
Max Temperature 72 °F 73 °F 83 °F (1973)
Min Temperature 31 °F 40 °F 28 °F (2004)
Degree Days  
Heating Degree Days 14 9  
Month to date heating degree days 82 111  
Since 1 July heating degree days 91 140  
Cooling Degree Days 0 0  
Month to date cooling degree days 49 3  
Year to date cooling degree days 350 240  
Growing Degree Days 2 (Base 50)    
Moisture  
Dew Point 24 °F    
Average Humidity 39    
Maximum Humidity 79    
Minimum Humidity 14    
Precipitation  
Precipitation 0.00 in 0.07 in 1.71 in (2013)
Month to date precipitation 1.23 1.49  
Year to date precipitation 12.60 11.46  
Sea Level Pressure  
Sea Level Pressure 30.09 in    
Wind  
Wind Speed 4 mph ()    
Max Wind Speed 18 mph    
Max Gust Speed 25 mph    
Visibility 10.0 miles    
Events      
T = Trace of Precipitation, MM = Missing Value Source: Averaged Metar Reports

Daily Weather History Graph

Daily Weather History Graph

Search for Another Location

Airport or City:

Astronomy

Sep. 22, 2019 Rise Set
Actual Time 6:58 AM MDT 7:08 PM MDT
Civil Twilight 6:32 AM MDT 7:34 PM MDT
Nautical Twilight 6:02 AM MDT 8:04 PM MDT
Astronomical Twilight 5:31 AM MDT 8:35 PM MDT
Moon No Moon Rise 2:58 PM MDT (9/22)
Length of Visible Light 13h 01m
Length of Day
12h 09m
Last Quarter, 43% of the Moon is Illuminated
Sep 22
Last Quarter
Sep 28
New
Oct 5
First Quarter
Oct 13
Full
Oct 21
Last Quarter

Hourly Weather History & Observations

Time (MDT) Temp. Windchill Dew Point Humidity Pressure Visibility Wind Dir Wind Speed Gust Speed Precip Events Conditions
12:53 AM 44.1 °F - 27.0 °F 51% 29.99 in 10.0 mi Calm Calm - N/A   Clear
1:53 AM 46.0 °F - 24.1 °F 42% 29.99 in 10.0 mi Calm Calm - N/A   Clear
2:53 AM 39.0 °F 36.8 °F 27.0 °F 62% 30.03 in 10.0 mi ESE 3.5 mph - N/A   Clear
3:53 AM 39.9 °F 37.8 °F 25.0 °F 55% 30.02 in 10.0 mi NNE 3.5 mph - N/A   Clear
4:53 AM 37.9 °F - 26.1 °F 62% 30.04 in 10.0 mi Calm Calm - N/A   Clear
5:53 AM 32.0 °F 26.4 °F 26.1 °F 79% 30.09 in 10.0 mi NE 5.8 mph - N/A   Clear
6:53 AM 33.1 °F 30.0 °F 26.1 °F 75% 30.13 in 10.0 mi East 3.5 mph - N/A   Clear
7:53 AM 37.9 °F - 28.0 °F 68% 30.14 in 10.0 mi Calm Calm - N/A   Clear
8:53 AM 44.1 °F 42.5 °F 28.0 °F 53% 30.14 in 10.0 mi South 3.5 mph - N/A   Clear
9:53 AM 53.1 °F - 26.1 °F 35% 30.15 in 10.0 mi Calm Calm - N/A   Clear
10:53 AM 61.0 °F - 26.1 °F 26% 30.12 in 10.0 mi Variable 4.6 mph - N/A   Clear
11:53 AM 64.9 °F - 25.0 °F 22% 30.11 in 10.0 mi SW 10.4 mph - N/A   Clear
12:53 PM 68.0 °F - 25.0 °F 20% 30.09 in 10.0 mi SSW 13.8 mph 21.9 mph N/A   Clear
1:53 PM 69.1 °F - 23.0 °F 18% 30.06 in 10.0 mi WSW 13.8 mph 24.2 mph N/A   Clear
2:53 PM 70.0 °F - 21.9 °F 16% 30.06 in 10.0 mi South 9.2 mph 24.2 mph N/A   Clear
3:53 PM 71.1 °F - 21.0 °F 15% 30.05 in 10.0 mi SSW 15.0 mph 24.2 mph N/A   Clear
4:53 PM 71.1 °F - 19.9 °F 14% 30.06 in 10.0 mi SW 13.8 mph - N/A   Clear
5:53 PM 70.0 °F - 18.0 °F 14% 30.09 in 10.0 mi SW 12.7 mph - N/A   Clear
6:53 PM 64.0 °F - 19.9 °F 18% 30.12 in 10.0 mi SW 6.9 mph - N/A   Clear
7:53 PM 60.1 °F - 18.0 °F 20% 30.14 in 10.0 mi WSW 3.5 mph - N/A   Clear
8:53 PM 54.0 °F - 24.1 °F 31% 30.16 in 10.0 mi North 12.7 mph - N/A   Clear
9:53 PM 48.0 °F - 27.0 °F 44% 30.15 in 10.0 mi NE 4.6 mph - N/A   Clear
10:53 PM 46.9 °F - 28.0 °F 48% 30.12 in 10.0 mi NNW 4.6 mph - N/A   Clear
11:53 PM 45.0 °F 43.5 °F 26.1 °F 48% 30.11 in 10.0 mi SE 3.5 mph - N/A   Clear